Time,TemperatureF,DewpointF,PressureIn,WindDirection,WindDirectionDegrees,WindSpeedMPH,WindSpeedGustMPH,Humidity,HourlyPrecipIn,Conditions,Clouds,dailyrainin,SoftwareType,DateUTC
2013-03-17 00:02:00,33.0,23.0,-100.00,North,-999,-999.0,-999.0,66,-99.99,,,-99.99,,2013-03-17 06:02:00,
2013-03-17 00:12:00,35.0,23.0,-100.00,North,-999,-999.0,-999.0,60,-99.99,,,-99.99,,2013-03-17 06:12:00,
2013-03-17 00:22:00,35.0,23.0,-100.00,North,-999,-999.0,-999.0,60,-99.99,,,-99.99,,2013-03-17 06:22:00,
2013-03-17 00:32:00,35.0,23.0,-100.00,North,-999,-999.0,-999.0,60,-99.99,,,-99.99,,2013-03-17 06:32:00,
2013-03-17 00:42:00,36.0,23.0,-100.00,North,-999,-999.0,-999.0,58,-99.99,,,-99.99,,2013-03-17 06:42:00,
2013-03-17 00:52:00,36.0,23.0,-100.00,North,-999,-999.0,-999.0,58,-99.99,,,-99.99,,2013-03-17 06:52:00,
2013-03-17 01:02:00,34.0,23.0,-100.00,North,-999,-999.0,-999.0,63,-99.99,,,-99.99,,2013-03-17 07:02:00,
2013-03-17 01:12:00,35.0,23.0,-100.00,North,-999,-999.0,-999.0,60,-99.99,,,-99.99,,2013-03-17 07:12:00,
2013-03-17 01:22:00,35.0,23.0,-100.00,North,-999,-999.0,-999.0,60,-99.99,,,-99.99,,2013-03-17 07:22:00,
2013-03-17 01:32:00,35.0,23.0,-100.00,North,-999,-999.0,-999.0,60,-99.99,,,-99.99,,2013-03-17 07:32:00,
2013-03-17 01:42:00,38.0,23.0,-100.00,North,-999,-999.0,-999.0,54,-99.99,,,-99.99,,2013-03-17 07:42:00,
2013-03-17 01:52:00,38.0,23.0,-100.00,North,-999,-999.0,-999.0,54,-99.99,,,-99.99,,2013-03-17 07:52:00,
2013-03-17 02:02:00,40.0,22.0,-100.00,North,-999,-999.0,-999.0,48,-99.99,,,-99.99,,2013-03-17 08:02:00,
2013-03-17 02:12:00,40.0,21.0,-100.00,North,-999,-999.0,-999.0,46,-99.99,,,-99.99,,2013-03-17 08:12:00,
2013-03-17 02:22:00,40.0,21.0,-100.00,North,-999,-999.0,-999.0,46,-99.99,,,-99.99,,2013-03-17 08:22:00,
2013-03-17 02:32:00,40.0,21.0,-100.00,North,-999,-999.0,-999.0,46,-99.99,,,-99.99,,2013-03-17 08:32:00,
2013-03-17 02:42:00,37.0,26.0,-100.00,North,-999,-999.0,-999.0,63,-99.99,,,-99.99,,2013-03-17 08:42:00,
2013-03-17 02:52:00,37.0,26.0,-100.00,North,-999,-999.0,-999.0,63,-99.99,,,-99.99,,2013-03-17 08:52:00,
2013-03-17 03:02:00,35.0,27.0,-100.00,North,-999,-999.0,-999.0,75,-99.99,,,-99.99,,2013-03-17 09:02:00,
2013-03-17 03:12:00,33.0,29.0,-100.00,North,-999,-999.0,-999.0,84,-99.99,,,-99.99,,2013-03-17 09:12:00,
2013-03-17 03:22:00,33.0,29.0,-100.00,North,-999,-999.0,-999.0,84,-99.99,,,-99.99,,2013-03-17 09:22:00,
2013-03-17 03:32:00,33.0,29.0,-100.00,North,-999,-999.0,-999.0,84,-99.99,,,-99.99,,2013-03-17 09:32:00,
2013-03-17 03:42:00,32.0,31.0,-100.00,North,-999,-999.0,-999.0,98,-99.99,,,-99.99,,2013-03-17 09:42:00,
2013-03-17 03:53:00,32.0,31.0,-100.00,North,-999,-999.0,-999.0,98,-99.99,,,-99.99,,2013-03-17 09:53:00,
2013-03-17 04:03:00,31.0,31.0,-100.00,North,-999,-999.0,-999.0,100,-99.99,,,-99.99,,2013-03-17 10:03:00,
2013-03-17 04:12:00,31.0,31.0,-100.00,North,-999,-999.0,-999.0,100,-99.99,,,-99.99,,2013-03-17 10:12:00,
2013-03-17 04:23:00,31.0,31.0,-100.00,North,-999,-999.0,-999.0,100,-99.99,,,-99.99,,2013-03-17 10:23:00,
2013-03-17 04:33:00,31.0,31.0,-100.00,North,-999,-999.0,-999.0,100,-99.99,,,-99.99,,2013-03-17 10:33:00,
2013-03-17 04:42:00,31.0,31.0,-100.00,North,-999,-999.0,-999.0,98,-99.99,,,-99.99,,2013-03-17 10:42:00,
2013-03-17 04:52:00,31.0,31.0,-100.00,North,-999,-999.0,-999.0,98,-99.99,,,-99.99,,2013-03-17 10:52:00,
2013-03-17 05:02:00,31.0,30.0,-100.00,North,-999,-999.0,-999.0,94,-99.99,,,-99.99,,2013-03-17 11:02:00,
2013-03-17 05:12:00,32.0,28.0,-100.00,North,-999,-999.0,-999.0,86,-99.99,,,-99.99,,2013-03-17 11:12:00,
2013-03-17 05:22:00,32.0,28.0,-100.00,North,-999,-999.0,-999.0,86,-99.99,,,-99.99,,2013-03-17 11:22:00,
2013-03-17 05:32:00,32.0,28.0,-100.00,North,-999,-999.0,-999.0,86,-99.99,,,-99.99,,2013-03-17 11:32:00,
2013-03-17 05:42:00,31.0,27.0,-100.00,North,-999,-999.0,-999.0,82,-99.99,,,-99.99,,2013-03-17 11:42:00,
2013-03-17 05:52:00,31.0,27.0,-100.00,North,-999,-999.0,-999.0,82,-99.99,,,-99.99,,2013-03-17 11:52:00,
2013-03-17 06:02:00,31.0,26.0,-100.00,North,-999,-999.0,-999.0,81,-99.99,,,-99.99,,2013-03-17 12:02:00,
2013-03-17 06:12:00,31.0,24.0,-100.00,North,-999,-999.0,-999.0,75,-99.99,,,-99.99,,2013-03-17 12:12:00,
2013-03-17 06:22:00,31.0,24.0,-100.00,North,-999,-999.0,-999.0,75,-99.99,,,-99.99,,2013-03-17 12:22:00,
2013-03-17 06:32:00,31.0,24.0,-100.00,North,-999,-999.0,-999.0,75,-99.99,,,-99.99,,2013-03-17 12:32:00,
2013-03-17 06:42:00,31.0,24.0,-100.00,North,-999,-999.0,-999.0,75,-99.99,,,-99.99,,2013-03-17 12:42:00,
2013-03-17 06:52:00,31.0,24.0,-100.00,North,-999,-999.0,-999.0,75,-99.99,,,-99.99,,2013-03-17 12:52:00,
2013-03-17 07:01:00,31.0,25.0,-100.00,North,-999,-999.0,-999.0,77,-99.99,,,-99.99,,2013-03-17 13:01:00,
2013-03-17 07:12:00,31.0,25.0,-100.00,North,-999,-999.0,-999.0,79,-99.99,,,-99.99,,2013-03-17 13:12:00,
2013-03-17 07:22:00,31.0,25.0,-100.00,North,-999,-999.0,-999.0,79,-99.99,,,-99.99,,2013-03-17 13:22:00,
2013-03-17 07:32:00,31.0,25.0,-100.00,North,-999,-999.0,-999.0,79,-99.99,,,-99.99,,2013-03-17 13:32:00,
2013-03-17 07:42:00,30.0,25.0,-100.00,North,-999,-999.0,-999.0,80,-99.99,,,-99.99,,2013-03-17 13:42:00,
2013-03-17 07:52:00,30.0,25.0,-100.00,North,-999,-999.0,-999.0,80,-99.99,,,-99.99,,2013-03-17 13:52:00,
2013-03-17 08:02:00,30.0,26.0,-100.00,North,-999,-999.0,-999.0,86,-99.99,,,-99.99,,2013-03-17 14:02:00,
2013-03-17 08:12:00,29.0,27.0,-100.00,North,-999,-999.0,-999.0,90,-99.99,,,-99.99,,2013-03-17 14:12:00,
2013-03-17 08:22:00,29.0,27.0,-100.00,North,-999,-999.0,-999.0,90,-99.99,,,-99.99,,2013-03-17 14:22:00,
2013-03-17 08:32:00,29.0,27.0,-100.00,North,-999,-999.0,-999.0,90,-99.99,,,-99.99,,2013-03-17 14:32:00,
2013-03-17 08:42:00,29.0,26.0,-100.00,North,-999,-999.0,-999.0,88,-99.99,,,-99.99,,2013-03-17 14:42:00,
2013-03-17 08:52:00,29.0,26.0,-100.00,North,-999,-999.0,-999.0,88,-99.99,,,-99.99,,2013-03-17 14:52:00,
2013-03-17 09:02:00,30.0,24.0,-100.00,North,-999,-999.0,-999.0,79,-99.99,,,-99.99,,2013-03-17 15:02:00,
2013-03-17 09:12:00,30.0,24.0,-100.00,North,-999,-999.0,-999.0,75,-99.99,,,-99.99,,2013-03-17 15:12:00,
2013-03-17 09:22:00,30.0,24.0,-100.00,North,-999,-999.0,-999.0,75,-99.99,,,-99.99,,2013-03-17 15:22:00,
2013-03-17 09:32:00,30.0,24.0,-100.00,North,-999,-999.0,-999.0,75,-99.99,,,-99.99,,2013-03-17 15:32:00,
2013-03-17 09:42:00,30.0,24.0,-100.00,North,-999,-999.0,-999.0,75,-99.99,,,-99.99,,2013-03-17 15:42:00,
2013-03-17 09:53:00,30.0,24.0,-100.00,North,-999,-999.0,-999.0,75,-99.99,,,-99.99,,2013-03-17 15:53:00,
2013-03-17 10:03:00,30.0,24.0,-100.00,North,-999,-999.0,-999.0,75,-99.99,,,-99.99,,2013-03-17 16:03:00,
2013-03-17 10:12:00,28.0,28.0,-100.00,North,-999,-999.0,-999.0,99,-99.99,,,-99.99,,2013-03-17 16:12:00,
2013-03-17 10:22:00,28.0,28.0,-100.00,North,-999,-999.0,-999.0,99,-99.99,,,-99.99,,2013-03-17 16:22:00,
2013-03-17 10:33:00,28.0,28.0,-100.00,North,-999,-999.0,-999.0,99,-99.99,,,-99.99,,2013-03-17 16:33:00,
2013-03-17 10:42:00,28.0,28.0,-100.00,North,-999,-999.0,-999.0,98,-99.99,,,-99.99,,2013-03-17 16:42:00,
2013-03-17 10:52:00,28.0,28.0,-100.00,North,-999,-999.0,-999.0,98,-99.99,,,-99.99,,2013-03-17 16:52:00,
2013-03-17 11:02:00,28.0,27.0,-100.00,North,-999,-999.0,-999.0,95,-99.99,,,-99.99,,2013-03-17 17:02:00,
2013-03-17 11:12:00,28.0,26.0,-100.00,North,-999,-999.0,-999.0,92,-99.99,,,-99.99,,2013-03-17 17:12:00,
2013-03-17 11:22:00,28.0,26.0,-100.00,North,-999,-999.0,-999.0,92,-99.99,,,-99.99,,2013-03-17 17:22:00,
2013-03-17 11:32:00,28.0,26.0,-100.00,North,-999,-999.0,-999.0,92,-99.99,,,-99.99,,2013-03-17 17:32:00,
2013-03-17 11:42:00,30.0,26.0,-100.00,North,-999,-999.0,-999.0,82,-99.99,,,-99.99,,2013-03-17 17:42:00,
2013-03-17 11:53:00,30.0,26.0,-100.00,North,-999,-999.0,-999.0,82,-99.99,,,-99.99,,2013-03-17 17:53:00,
2013-03-17 12:02:00,28.0,26.0,-100.00,North,-999,-999.0,-999.0,92,-99.99,,,-99.99,,2013-03-17 18:02:00,
2013-03-17 12:12:00,29.0,25.0,-100.00,North,-999,-999.0,-999.0,83,-99.99,,,-99.99,,2013-03-17 18:12:00,
2013-03-17 12:22:00,29.0,25.0,-100.00,North,-999,-999.0,-999.0,83,-99.99,,,-99.99,,2013-03-17 18:22:00,
2013-03-17 12:32:00,29.0,25.0,-100.00,North,-999,-999.0,-999.0,83,-99.99,,,-99.99,,2013-03-17 18:32:00,
2013-03-17 12:42:00,31.0,23.0,-100.00,North,-999,-999.0,-999.0,73,-99.99,,,-99.99,,2013-03-17 18:42:00,
2013-03-17 12:52:00,31.0,23.0,-100.00,North,-999,-999.0,-999.0,73,-99.99,,,-99.99,,2013-03-17 18:52:00,
2013-03-17 13:02:00,31.0,23.0,-100.00,North,-999,-999.0,-999.0,73,-99.99,,,-99.99,,2013-03-17 19:02:00,
2013-03-17 13:12:00,33.0,22.0,-100.00,North,-999,-999.0,-999.0,64,-99.99,,,-99.99,,2013-03-17 19:12:00,
2013-03-17 13:22:00,33.0,22.0,-100.00,North,-999,-999.0,-999.0,64,-99.99,,,-99.99,,2013-03-17 19:22:00,
2013-03-17 13:32:00,33.0,22.0,-100.00,North,-999,-999.0,-999.0,64,-99.99,,,-99.99,,2013-03-17 19:32:00,
2013-03-17 13:41:00,34.0,23.0,-100.00,North,-999,-999.0,-999.0,64,-99.99,,,-99.99,,2013-03-17 19:41:00,
2013-03-17 13:53:00,34.0,23.0,-100.00,North,-999,-999.0,-999.0,64,-99.99,,,-99.99,,2013-03-17 19:53:00,
2013-03-17 14:02:00,32.0,23.0,-100.00,North,-999,-999.0,-999.0,69,-99.99,,,-99.99,,2013-03-17 20:02:00,
2013-03-17 14:12:00,33.0,23.0,-100.00,North,-999,-999.0,-999.0,66,-99.99,,,-99.99,,2013-03-17 20:12:00,
2013-03-17 14:22:00,33.0,23.0,-100.00,North,-999,-999.0,-999.0,66,-99.99,,,-99.99,,2013-03-17 20:22:00,
2013-03-17 14:32:00,33.0,23.0,-100.00,North,-999,-999.0,-999.0,66,-99.99,,,-99.99,,2013-03-17 20:32:00,
2013-03-17 14:42:00,32.0,22.0,-100.00,North,-999,-999.0,-999.0,66,-99.99,,,-99.99,,2013-03-17 20:42:00,
2013-03-17 14:52:00,32.0,22.0,-100.00,North,-999,-999.0,-999.0,66,-99.99,,,-99.99,,2013-03-17 20:52:00,
2013-03-17 15:02:00,31.0,22.0,-100.00,North,-999,-999.0,-999.0,68,-99.99,,,-99.99,,2013-03-17 21:02:00,
2013-03-17 15:12:00,30.0,22.0,-100.00,North,-999,-999.0,-999.0,72,-99.99,,,-99.99,,2013-03-17 21:12:00,
2013-03-17 15:22:00,30.0,22.0,-100.00,North,-999,-999.0,-999.0,72,-99.99,,,-99.99,,2013-03-17 21:22:00,
2013-03-17 15:32:00,30.0,22.0,-100.00,North,-999,-999.0,-999.0,72,-99.99,,,-99.99,,2013-03-17 21:32:00,
2013-03-17 15:42:00,30.0,23.0,-100.00,North,-999,-999.0,-999.0,75,-99.99,,,-99.99,,2013-03-17 21:42:00,
2013-03-17 15:52:00,30.0,23.0,-100.00,North,-999,-999.0,-999.0,75,-99.99,,,-99.99,,2013-03-17 21:52:00,
2013-03-17 16:03:00,29.0,22.0,-100.00,North,-999,-999.0,-999.0,73,-99.99,,,-99.99,,2013-03-17 22:03:00,
2013-03-17 16:12:00,30.0,21.0,-100.00,North,-999,-999.0,-999.0,69,-99.99,,,-99.99,,2013-03-17 22:12:00,
2013-03-17 16:23:00,30.0,21.0,-100.00,North,-999,-999.0,-999.0,69,-99.99,,,-99.99,,2013-03-17 22:23:00,
2013-03-17 16:33:00,30.0,21.0,-100.00,North,-999,-999.0,-999.0,69,-99.99,,,-99.99,,2013-03-17 22:33:00,
2013-03-17 16:42:00,27.0,21.0,-100.00,North,-999,-999.0,-999.0,75,-99.99,,,-99.99,,2013-03-17 22:42:00,
2013-03-17 16:53:00,27.0,21.0,-100.00,North,-999,-999.0,-999.0,75,-99.99,,,-99.99,,2013-03-17 22:53:00,
2013-03-17 17:02:00,28.0,20.0,-100.00,North,-999,-999.0,-999.0,72,-99.99,,,-99.99,,2013-03-17 23:02:00,
2013-03-17 17:12:00,29.0,20.0,-100.00,North,-999,-999.0,-999.0,69,-99.99,,,-99.99,,2013-03-17 23:12:00,
2013-03-17 17:22:00,29.0,20.0,-100.00,North,-999,-999.0,-999.0,69,-99.99,,,-99.99,,2013-03-17 23:22:00,
2013-03-17 17:32:00,29.0,20.0,-100.00,North,-999,-999.0,-999.0,69,-99.99,,,-99.99,,2013-03-17 23:32:00,
2013-03-17 17:42:00,29.0,19.0,-100.00,North,-999,-999.0,-999.0,67,-99.99,,,-99.99,,2013-03-17 23:42:00,
2013-03-17 17:52:00,29.0,19.0,-100.00,North,-999,-999.0,-999.0,67,-99.99,,,-99.99,,2013-03-17 23:52:00,
2013-03-17 18:03:00,27.0,19.0,-100.00,North,-999,-999.0,-999.0,70,-99.99,,,-99.99,,2013-03-18 00:03:00,
2013-03-17 18:11:00,27.0,19.0,-100.00,North,-999,-999.0,-999.0,72,-99.99,,,-99.99,,2013-03-18 00:11:00,
2013-03-17 18:22:00,27.0,19.0,-100.00,North,-999,-999.0,-999.0,72,-99.99,,,-99.99,,2013-03-18 00:22:00,
2013-03-17 18:32:00,27.0,19.0,-100.00,North,-999,-999.0,-999.0,72,-99.99,,,-99.99,,2013-03-18 00:32:00,
2013-03-17 18:42:00,27.0,20.0,-100.00,North,-999,-999.0,-999.0,74,-99.99,,,-99.99,,2013-03-18 00:42:00,
2013-03-17 18:52:00,27.0,20.0,-100.00,North,-999,-999.0,-999.0,74,-99.99,,,-99.99,,2013-03-18 00:52:00,
2013-03-17 19:01:00,27.0,20.0,-100.00,North,-999,-999.0,-999.0,76,-99.99,,,-99.99,,2013-03-18 01:01:00,
2013-03-17 19:12:00,27.0,20.0,-100.00,North,-999,-999.0,-999.0,75,-99.99,,,-99.99,,2013-03-18 01:12:00,
2013-03-17 19:22:00,27.0,20.0,-100.00,North,-999,-999.0,-999.0,75,-99.99,,,-99.99,,2013-03-18 01:22:00,
2013-03-17 19:32:00,27.0,20.0,-100.00,North,-999,-999.0,-999.0,75,-99.99,,,-99.99,,2013-03-18 01:32:00,
2013-03-17 19:42:00,25.0,20.0,-100.00,North,-999,-999.0,-999.0,79,-99.99,,,-99.99,,2013-03-18 01:42:00,
2013-03-17 19:52:00,25.0,20.0,-100.00,North,-999,-999.0,-999.0,79,-99.99,,,-99.99,,2013-03-18 01:52:00,
2013-03-17 20:02:00,25.0,20.0,-100.00,North,-999,-999.0,-999.0,79,-99.99,,,-99.99,,2013-03-18 02:02:00,
2013-03-17 20:12:00,25.0,19.0,-100.00,North,-999,-999.0,-999.0,78,-99.99,,,-99.99,,2013-03-18 02:12:00,
2013-03-17 20:22:00,25.0,19.0,-100.00,North,-999,-999.0,-999.0,78,-99.99,,,-99.99,,2013-03-18 02:22:00,
2013-03-17 20:32:00,25.0,19.0,-100.00,North,-999,-999.0,-999.0,78,-99.99,,,-99.99,,2013-03-18 02:32:00,
2013-03-17 20:42:00,24.0,18.0,-100.00,North,-999,-999.0,-999.0,75,-99.99,,,-99.99,,2013-03-18 02:42:00,
2013-03-17 20:52:00,24.0,18.0,-100.00,North,-999,-999.0,-999.0,75,-99.99,,,-99.99,,2013-03-18 02:52:00,
2013-03-17 21:02:00,24.0,17.0,-100.00,North,-999,-999.0,-999.0,75,-99.99,,,-99.99,,2013-03-18 03:02:00,
2013-03-17 21:11:00,23.0,17.0,-100.00,North,-999,-999.0,-999.0,76,-99.99,,,-99.99,,2013-03-18 03:11:00,
2013-03-17 21:22:00,23.0,17.0,-100.00,North,-999,-999.0,-999.0,76,-99.99,,,-99.99,,2013-03-18 03:22:00,
2013-03-17 21:32:00,23.0,17.0,-100.00,North,-999,-999.0,-999.0,76,-99.99,,,-99.99,,2013-03-18 03:32:00,
2013-03-17 21:42:00,24.0,15.0,-100.00,North,-999,-999.0,-999.0,68,-99.99,,,-99.99,,2013-03-18 03:42:00,
2013-03-17 21:53:00,24.0,15.0,-100.00,North,-999,-999.0,-999.0,68,-99.99,,,-99.99,,2013-03-18 03:53:00,
2013-03-17 22:02:00,25.0,14.0,-100.00,North,-999,-999.0,-999.0,62,-99.99,,,-99.99,,2013-03-18 04:02:00,
2013-03-17 22:12:00,25.0,14.0,-100.00,North,-999,-999.0,-999.0,61,-99.99,,,-99.99,,2013-03-18 04:12:00,
2013-03-17 22:22:00,25.0,14.0,-100.00,North,-999,-999.0,-999.0,61,-99.99,,,-99.99,,2013-03-18 04:22:00,
2013-03-17 22:33:00,25.0,14.0,-100.00,North,-999,-999.0,-999.0,61,-99.99,,,-99.99,,2013-03-18 04:33:00,
2013-03-17 22:42:00,25.0,13.0,-100.00,North,-999,-999.0,-999.0,58,-99.99,,,-99.99,,2013-03-18 04:42:00,
2013-03-17 22:52:00,25.0,13.0,-100.00,North,-999,-999.0,-999.0,58,-99.99,,,-99.99,,2013-03-18 04:52:00,
2013-03-17 23:02:00,26.0,13.0,-100.00,North,-999,-999.0,-999.0,56,-99.99,,,-99.99,,2013-03-18 05:02:00,
2013-03-17 23:12:00,26.0,13.0,-100.00,North,-999,-999.0,-999.0,56,-99.99,,,-99.99,,2013-03-18 05:12:00,
2013-03-17 23:22:00,26.0,13.0,-100.00,North,-999,-999.0,-999.0,56,-99.99,,,-99.99,,2013-03-18 05:22:00,
2013-03-17 23:32:00,26.0,13.0,-100.00,North,-999,-999.0,-999.0,56,-99.99,,,-99.99,,2013-03-18 05:32:00,
2013-03-17 23:42:00,26.0,14.0,-100.00,North,-999,-999.0,-999.0,58,-99.99,,,-99.99,,2013-03-18 05:42:00,
2013-03-17 23:52:00,26.0,14.0,-100.00,North,-999,-999.0,-999.0,58,-99.99,,,-99.99,,2013-03-18 05:52:00,